Location: Guadanolo
(41.9167°N, 12.9333°E)
Time: 14:52:00
(UTC+00:00)

H-2A R/B - Pass Details

Date: 16 September 2019
Orbit: 734 x 836 km, 98.3° (Epoch: 17 October)

Event Time Altitude Azimuth Distance (km) Brightness Sun altitude
Exits shadow 20:06:40 22° 233° (SW) 1,581 3.7 -30.3°
Maximum altitude 20:08:22 27° 265° (W) 1,411 3.7 -30.6°
Drops below altitude 10° 20:12:33 10° 323° (NW) 2,271 5.3 -31.2°
Sets 20:15:13 0° 335° (NNW) 3,213 6.1 -31.6°
